Regional Weather Roundup
Issued by NWS

Home | Current Version | Previous Version | Graphics & Text | Print | Product List | Glossary On
Versions: 1 2 3 4 5 6 7 8 9 10 11 12 13 14 15 16 17 18 19 20 21 22 23 24 25 26 27 28 29 30 31 32 33 34 35 36 37 38 39 40 41 42 43 44 45 46 47 48 49 50
000
ASUS43 KIND 200409
RWRIN

WEATHER ROUNDUP FOR INDIANA
NATIONAL WEATHER SERVICE INDIANAPOLIS IN
1200 AM EDT FRI OCT 20 2017

NOTE: "FAIR" INDICATES FEW OR NO CLOUDS BELOW 12,000 FEET WITH NO
SIGNIFICANT WEATHER AND/OR OBSTRUCTIONS TO VISIBILITY.

* - STATION DOES NOT REPORT WEATHER SUCH AS PRECIPITATION OR FOG.

+ - STATION NOT QUALITY CONTROLLED BY THE NATIONAL WEATHER SERVICE.
    USE DATA WITH CAUTION...ESPECIALLY DEWPOINT AND RELATIVE
    HUMIDITY OBSERVATIONS.

INZ001>003-010>013-019-020-200500-
NORTHWEST INDIANA

CITY           SKY/WX    TMP DP  RH WIND       PRES   REMARKS
GARY /AIRPORT/ FAIR      56  35  44 SE6       30.17S
KNOX *+        FAIR      45  41  87 SE3       30.20R
LA PORTE +     FAIR      43  40  92 CALM      30.20S
MICHIGAN CITY+ FAIR      43  43 100 CALM      30.19S
MONTICELLO +   FAIR      53  51  92 CALM      30.19S
RENSSELAER +   FAIR      52  36  54 E5        30.19S
VALPARAISO     FAIR      50  40  68 E6        30.19S

$$

LMZ046-743>745-200500-
SOUTHERN LAKE MICHIGAN

STATION/POSITION TIME  TEMP    WIND        PRES    WAVE
                       AIR SEA DIR/SP/G            HT
                 (UTC) (F)     (DEG/KT/KT) (MB)    (FT)
BURNS HARBOR     0340   64     140/  9/ 13 1022.0S
MICHIGAN CITY    0340   54     130/  9/ 10   N/A
5NW MICH CITY    0400   58 58  150/  6/ 10   N/A     1

$$

INZ004-005-014>016-021>024-200500-
NORTH CENTRAL INDIANA

CITY           SKY/WX    TMP DP  RH WIND       PRES   REMARKS
GOSHEN         FAIR      45  39  79 SE3       30.20S
LOGANSPORT +   FAIR      52  45  76 CALM      30.21S HAZE
PERU/GRISSOM   FAIR      52  50  94 CALM      30.20S
SOUTH BEND     FAIR      45  40  82 CALM      30.21R
WARSAW +       FAIR      45  39  81 CALM      30.21S

$$

INZ006>009-017-018-025>027-200500-
NORTHEAST INDIANA

CITY           SKY/WX    TMP DP  RH WIND       PRES   REMARKS
AUBURN +       FAIR      46  39  76 CALM      30.21F
FORT WAYNE     FAIR      50  44  80 CALM      30.22R
HUNTINGTON +   FAIR      49  47  95 CALM      30.21S
KENDALLVILLE + FAIR      45  42  89 CALM      30.21F

$$

INZ028-029-035-036-043>045-051>053-200500-
WEST CENTRAL INDIANA

CITY           SKY/WX    TMP DP  RH WIND       PRES   REMARKS
CRAWFORDSVL +  FAIR      52  50  93 CALM      30.20S
GREENCASTLE +  FAIR      52  52 100 CALM      30.22S
LAFAYETTE      FAIR      53  51  93 E3        30.19S
TERRE HAUTE    FAIR      52  48  86 CALM      30.21R

$$

INZ030>032-037>040-046>048-054>057-064-065-200500-
CENTRAL INDIANA

CITY           SKY/WX    TMP DP  RH WIND       PRES   REMARKS
CP ATTERBURY +   N/A     50  48  93 CALM      30.23S VSB 3/4
COLUMBUS       CLEAR     50  48  93 CALM      30.23S
FISHERS *+     FAIR      52  52 100 CALM      30.21S
FRANKFORT +    FAIR      54  50  87 CALM      30.22S
GREENWOOD *+   FAIR      54  51  90 CALM      30.23S
INDIANAPOLIS   FAIR      58  51  78 CALM      30.22S
-EAGLE CREEK   FAIR      56  52  86 CALM      30.21S
KOKOMO +       FAIR      51  49  92 SE3       30.22R
MARION +       FAIR      48  45  87 CALM      30.22R
MT COMFORT *+  FAIR      48  48 100 CALM      30.22S
SHELBYVILLE    FAIR      52  47  83 S3        30.21F
ZIONSVILLE +   FAIR      50  49  97 CALM      30.22S

$$

INZ033-034-041-042-049-050-058-059-200500-
EAST CENTRAL INDIANA

CITY           SKY/WX    TMP DP  RH WIND       PRES   REMARKS
MUNCIE         FAIR      50  46  86 CALM      30.22R
RICHMOND +     FAIR      52  48  87 CALM      30.23S

$$

INZ060-061-067>069-081>083-085>088-200500-
SOUTHWEST INDIANA

CITY           SKY/WX    TMP DP  RH WIND       PRES   REMARKS
EVANSVILLE     FAIR      55  50  83 CALM      30.22S
HUNTINGBURG +  FAIR      57  51  80 CALM      30.23S
WASHINGTON +   FAIR      54  49  86 SE3       30.22R

$$

INZ062-063-066-070>080-084-089>092-200500-
SOUTH CENTRAL AND SOUTHEAST INDIANA

CITY           SKY/WX    TMP DP  RH WIND       PRES   REMARKS
BEDFORD +      FAIR      55  50  82 CALM      30.22S
BLOOMINGTON    FAIR      53  48  83 CALM      30.22S
MADISON *+     FAIR      52  50  93 CALM      30.26S
NORTH VERNON + FAIR      48  48 100 CALM      30.24R
SEYMOUR +      FAIR      50  48  93 CALM      30.23S

$$





USA.gov is the U.S. government's official web portal to all federal, state and local government web resources and services.